This demonstration page uses our WeatherBlox Daily Observations layout. Learn more.

39.92423, -83.80882

Hourly Observations for December 28, 2019

Temp ( °F °C ) Dew Point ( °F °C ) Humidity (%) Winds ( mph kmh ) Pressure ( in mb ) Visibility ( mi km ) Precip ( " mm )
12:56 am 00:56 Cloudy with Fog 38 3.3 38 3.3 100 100 NW 3 6 30.27 1025 0.25 0.402335 0.001 0.001
1:49 am 01:49 Cloudy with Light Rain 37 3 37 3 100 100 N 6 9 30.29 1026 0.75 1.207005 0.001 0.001
1:56 am 01:56 Cloudy with Fog 37 2.8 37 2.8 100 100 NNE 5 7 30.26 1025 0.5 0.80467 0.001 0.001
2:05 am 02:05 Cloudy with Light Rain 37 3 37 3 100 100 Calm 30.28 1025 0.25 0.402335 0.001 0.001
2:56 am 02:56 Cloudy with Fog 37 2.8 37 2.8 100 100 NE 5 7 30.27 1025 0.25 0.402335 0.001 0.001
3:53 am 03:53 Cloudy with Light Rain 36 2 36 2 100 100 E 5 7 30.3 1026 0.5 0.80467 0.001 0.001
3:56 am 03:56 Cloudy with Light Rain 36 2.2 36 2.2 100 100 E 5 7 30.27 1025 0.5 0.80467 0.001 0.001
4:09 am 04:09 Cloudy with Light Rain 36 2 36 2 100 100 NE 6 9 30.3 1026 0.25 0.402335 0.001 0.001
4:22 am 04:22 Cloudy with Light Rain 36 2 36 2 100 100 ENE 6 9 30.31 1026 0.5 0.80467 0.001 0.001
4:40 am 04:40 Cloudy with Light Rain 36 2 36 2 100 100 ENE 5 7 30.3 1026 1 1.60934 0.001 0.001
4:52 am 04:52 Cloudy with Mist and Fog 36 2 36 2 100 100 NE 6 9 30.31 1026 1.25 2.011675 0.001 0.001
4:56 am 04:56 Cloudy with Mist and Fog 36 2.2 36 2.2 100 100 NE 5 7 30.29 1026 1.5 2.41401 0.001 0.001
5:04 am 05:04 Cloudy with Mist and Fog 36 2 36 2 100 100 NE 6 9 30.31 1026 0.75 1.207005 0 0
5:19 am 05:19 Cloudy with Light Rain 36 2 36 2 100 100 E 6 9 30.31 1026 1.25 2.011675 0.001 0.001
5:35 am 05:35 Cloudy with Mist and Fog 36 2 36 2 100 100 E 6 9 30.31 1026 0.75 1.207005 0.001 0.001
5:46 am 05:46 Cloudy with Fog 36 2 36 2 100 100 E 6 9 30.31 1026 0.5 0.80467 0.001 0.001
5:56 am 05:56 Cloudy with Fog 36 2.2 36 2.2 100 100 ENE 7 11 30.28 1026 0.25 0.402335 0.001 0.001
6:56 am 06:56 Cloudy with Light Rain 36 2.2 36 2.2 100 100 E 9 15 30.28 1025 0.25 0.402335 0.001 0.001
7:37 am 07:37 Cloudy with Light Rain 36 2 36 2 100 100 E 7 11 30.3 1026 0.5 0.80467 0.001 0.001
7:52 am 07:52 Cloudy with Light Rain 36 2 36 2 100 100 E 6 9 30.31 1026 0.25 0.402335 0.001 0.001
7:56 am 07:56 Cloudy with Light Rain 36 2.2 36 2.2 100 100 E 6 9 30.29 1026 0.25 0.402335 0.001 0.001
8:56 am 08:56 Cloudy with Fog 37 2.8 37 2.8 100 100 ESE 6 9 30.29 1026 0.25 0.402335 0.001 0.001
9:56 am 09:56 Cloudy with Light Rain 39 3.9 39 3.9 100 100 E 8 13 30.3 1026 0.25 0.402335 0.001 0.001
10:56 am 10:56 Cloudy with Fog 41 5 41 5 100 100 E 7 11 30.3 1026 0.5 0.80467 0.001 0.001
11:39 am 11:39 Cloudy with Fog 43 6 43 6 100 100 E 10 17 30.27 1025 0.25 0.402335 0 0
11:56 am 11:56 Cloudy with Fog 43 6.1 43 6.1 100 100 ESE 10 17 30.26 1025 0.25 0.402335 0 0
12:29 pm 12:29 Cloudy with Fog 45 7 45 7 100 100 ESE 8 13 30.23 1024 0.5 0.80467 0 0
12:44 pm 12:44 Cloudy with Mist and Fog 45 7 45 7 100 100 ESE 10 17 30.21 1023 1 1.60934 0 0
12:53 pm 12:53 Cloudy with Mist and Fog 45 7 45 7 100 100 E 10 17 30.2 1023 1.25 2.011675 0 0
12:56 pm 12:56 Cloudy with Mist and Fog 45 7.2 45 7.2 100 100 E 10 17 30.2 1023 1.5 2.41401 0 0
1:11 pm 13:11 Cloudy with Mist and Fog 46 8 46 8 100 100 E 10 17 30.2 1023 2.5 4.02335 0 0
1:32 pm 13:32 Cloudy with Mist and Fog 46 8 46 8 100 100 ESE 10 17 30.18 1022 3 4.82802 0 0
1:56 pm 13:56 Cloudy with Mist and Fog 48 8.9 48 8.9 100 100 ESE 12 19 30.18 1022 4 6.43736 0 0
2:28 pm 14:28 Cloudy with Mist and Fog 48 9 48 9 100 100 ESE 9 15 30.17 1022 4 6.43736 0 0
2:56 pm 14:56 Cloudy with Mist and Fog 49 9.4 49 9.4 100 100 ESE 12 19 30.16 1022 4 6.43736 0 0
3:56 pm 15:56 Cloudy with Mist and Fog 49 9.4 49 9.4 100 100 ESE 12 19 30.15 1021 3 4.82802 0 0
4:11 pm 16:11 Cloudy with Mist and Fog 48 9 48 9 100 100 E 10 17 30.14 1021 3 4.82802 0 0
4:19 pm 16:19 Cloudy with Mist and Fog 48 9 48 9 100 100 E 10 17 30.15 1021 2.5 4.02335 0 0
4:56 pm 16:56 Cloudy with Mist and Fog 48 8.9 48 8.9 100 100 E 9 15 30.15 1021 2 3.21868 0 0
5:26 pm 17:26 Cloudy with Mist and Fog 48 9 48 9 100 100 E 10 17 30.14 1021 1.75 2.816345 0 0
5:42 pm 17:42 Cloudy with Mist and Fog 46 8 46 8 100 100 E 8 13 30.15 1021 2.5 4.02335 0 0
5:49 pm 17:49 Cloudy with Mist and Fog 46 8 46 8 100 100 E 8 13 30.15 1021 3 4.82802 0 0
5:56 pm 17:56 Cloudy with Mist and Fog 47 8.3 47 8.3 100 100 E 8 13 30.15 1021 3 4.82802 0 0
6:56 pm 18:56 Cloudy with Mist and Fog 47 8.3 47 8.3 100 100 E 12 19 30.14 1021 4 6.43736 0 0
7:18 pm 19:18 Cloudy with Mist and Fog 46 8 46 8 100 100 E 12 19 30.13 1020 4 6.43736 0 0
7:56 pm 19:56 Cloudy with Mist and Fog 47 8.3 47 8.3 100 100 E 10 17 30.13 1020 4 6.43736 0 0
8:56 pm 20:56 Cloudy with Mist and Fog 47 8.3 47 8.3 100 100 ESE 12 19 30.11 1020 4 6.43736 0.001 0.001
9:56 pm 21:56 Cloudy with Mist and Fog 47 8.3 47 8.3 100 100 E 12 19 30.09 1019 4 6.43736 0 0
10:56 pm 22:56 Cloudy with Mist and Fog 47 8.3 47 8.3 100 100 ESE 14 22 30.06 1018 4 6.43736 0 0
11:56 pm 23:56 Clear with Mist and Fog 47 8.3 47 8.3 100 100 ESE 14 22 30.03 1017 4 6.43736 0 0

Powered by AerisWeather